GIA009 WIOO-WARR

Flight info

Callsign GIA009
Flight time 1h 19m
Altitude 39000
Route MASRI M635 SUMDI
Aircraft B738/M-SDE2E3FGHIRWXY/LB1

Departure

Time 2026-04-29 11:24
Airport Supadio International Airport (WIOO)

Arrival

Time 2026-04-29 12:44
Airport Juanda International Airport (WARR)
Time Latitude Longitude Altitude Speed Heading
2026-04-29 10:35 -0.14578 109.40332 31 ft 0 kts 69°
2026-04-29 11:14 -0.14579 109.40329 31 ft 3 kts 69°
2026-04-29 11:14 -0.14587 109.40304 31 ft 4 kts 82°
2026-04-29 11:14 -0.14587 109.40277 31 ft 4 kts 101°
2026-04-29 11:15 -0.14584 109.40264 31 ft 1 kts 110°
2026-04-29 11:17 -0.14614 109.40291 31 ft 11 kts 151°
2026-04-29 11:17 -0.14702 109.40328 31 ft 17 kts 159°
2026-04-29 11:17 -0.14804 109.40367 30 ft 6 kts 167°
2026-04-29 11:17 -0.14843 109.40362 30 ft 5 kts 215°
2026-04-29 11:18 -0.14849 109.40353 31 ft 0 kts 239°
2026-04-29 11:20 -0.14853 109.40347 31 ft 4 kts 241°
2026-04-29 11:20 -0.14882 109.40324 32 ft 6 kts 197°
2026-04-29 11:20 -0.14939 109.40328 32 ft 14 kts 163°
2026-04-29 11:20 -0.15064 109.40381 31 ft 26 kts 158°
2026-04-29 11:21 -0.15267 109.40462 30 ft 37 kts 158°
2026-04-29 11:21 -0.15535 109.40571 29 ft 46 kts 158°
2026-04-29 11:21 -0.15804 109.40681 29 ft 40 kts 159°
2026-04-29 11:21 -0.15921 109.40736 28 ft 4 kts 129°
2026-04-29 11:22 -0.15951 109.40767 29 ft 8 kts 142°
2026-04-29 11:22 -0.15965 109.40775 29 ft 2 kts 156°
2026-04-29 11:22 -0.15998 109.40775 29 ft 9 kts 180°
2026-04-29 11:22 -0.16093 109.40799 30 ft 18 kts 158°
2026-04-29 11:23 -0.16200 109.40850 30 ft 14 kts 137°
2026-04-29 11:23 -0.16257 109.40899 31 ft 6 kts 161°
2026-04-29 11:23 -0.16285 109.40880 30 ft 5 kts 265°
2026-04-29 11:23 -0.16280 109.40873 31 ft 1 kts 334°
2026-04-29 11:24 -0.16261 109.40867 31 ft 4 kts 339°
2026-04-29 11:24 -0.16039 109.40776 29 ft 80 kts 338°
2026-04-29 11:24 -0.15246 109.40465 48 ft 159 kts 340°
2026-04-29 11:24 -0.14171 109.40000 821 ft 171 kts 332°
2026-04-29 11:25 -0.13003 109.39475 1594 ft 201 kts 337°
2026-04-29 11:25 -0.11589 109.38925 1911 ft 233 kts 338°
2026-04-29 11:25 -0.10085 109.38160 2187 ft 254 kts 320°
2026-04-29 11:25 -0.09061 109.36696 2713 ft 264 kts 291°
2026-04-29 11:26 -0.09506 109.32939 3710 ft 299 kts 236°
2026-04-29 11:26 -0.10995 109.31499 4661 ft 301 kts 211°
2026-04-29 11:26 -0.12962 109.30802 5596 ft 303 kts 186°
2026-04-29 11:27 -0.15056 109.30974 6484 ft 305 kts 161°
2026-04-29 11:27 -0.16921 109.31965 7323 ft 306 kts 143°
2026-04-29 11:27 -0.18830 109.32930 8115 ft 314 kts 168°
2026-04-29 11:27 -0.21000 109.32822 8961 ft 318 kts 198°
2026-04-29 11:28 -0.22954 109.31881 10174 ft 306 kts 208°
2026-04-29 11:28 -0.24796 109.30830 11088 ft 306 kts 208°
2026-04-29 11:28 -0.26685 109.29833 11832 ft 310 kts 205°
2026-04-29 11:28 -0.28658 109.28921 12590 ft 314 kts 201°
2026-04-29 11:29 -0.30692 109.28096 13351 ft 317 kts 199°
2026-04-29 11:29 -0.32755 109.27345 14057 ft 320 kts 197°
2026-04-29 11:29 -0.34879 109.26634 14742 ft 323 kts 196°
2026-04-29 11:29 -0.37037 109.25956 15421 ft 327 kts 195°
2026-04-29 11:30 -0.39223 109.25297 16115 ft 330 kts 194°
2026-04-29 11:30 -0.41440 109.24649 16787 ft 333 kts 194°
2026-04-29 11:30 -0.43680 109.24006 17462 ft 337 kts 194°
2026-04-29 11:30 -0.45948 109.23363 18026 ft 344 kts 194°
2026-04-29 11:31 -0.48322 109.22696 18148 ft 364 kts 193°
2026-04-29 11:31 -0.50819 109.21999 18253 ft 382 kts 193°
2026-04-29 11:31 -0.53422 109.21272 18469 ft 393 kts 194°
2026-04-29 11:31 -0.56078 109.20531 18669 ft 397 kts 194°
2026-04-29 11:32 -0.58732 109.19789 18856 ft 394 kts 194°
2026-04-29 11:32 -0.61371 109.19051 19064 ft 398 kts 194°
2026-04-29 11:32 -0.64079 109.18297 19279 ft 408 kts 194°
2026-04-29 11:32 -0.66827 109.17640 19472 ft 415 kts 186°
2026-04-29 11:33 -0.69730 109.17602 19691 ft 420 kts 171°
2026-04-29 11:33 -0.72586 109.18244 19906 ft 424 kts 159°
2026-04-29 11:33 -0.75369 109.19269 20125 ft 429 kts 158°
2026-04-29 11:33 -0.78177 109.20338 20343 ft 434 kts 157°
2026-04-29 11:34 -0.81010 109.21421 20586 ft 438 kts 158°
2026-04-29 11:34 -0.83869 109.22507 20906 ft 438 kts 158°
2026-04-29 11:34 -0.86719 109.23580 21263 ft 437 kts 158°
2026-04-29 11:34 -0.89566 109.24643 21624 ft 436 kts 158°
2026-04-29 11:35 -0.92411 109.25700 21985 ft 436 kts 158°
2026-04-29 11:35 -0.95246 109.26749 22357 ft 435 kts 158°
2026-04-29 11:35 -0.98087 109.27799 22733 ft 434 kts 158°
2026-04-29 11:35 -1.00915 109.28844 23108 ft 433 kts 158°
2026-04-29 11:36 -1.03740 109.29888 23482 ft 433 kts 158°
2026-04-29 11:36 -1.06566 109.30933 23806 ft 434 kts 158°
2026-04-29 11:36 -1.09363 109.31966 24130 ft 435 kts 158°
2026-04-29 11:36 -1.12209 109.33019 24456 ft 436 kts 158°
2026-04-29 11:37 -1.15035 109.34064 24821 ft 435 kts 158°
2026-04-29 11:37 -1.17885 109.35117 25285 ft 433 kts 158°
2026-04-29 11:37 -1.20701 109.36158 25725 ft 430 kts 158°
2026-04-29 11:37 -1.23502 109.37193 26191 ft 429 kts 158°
2026-04-29 11:38 -1.26297 109.38227 26655 ft 427 kts 158°
2026-04-29 11:38 -1.29075 109.39254 27130 ft 425 kts 158°
2026-04-29 11:38 -1.31848 109.40279 27618 ft 423 kts 158°
2026-04-29 11:38 -1.34605 109.41299 28102 ft 422 kts 158°
2026-04-29 11:39 -1.37348 109.42313 28606 ft 420 kts 158°
2026-04-29 11:39 -1.40083 109.43325 29120 ft 418 kts 158°
2026-04-29 11:39 -1.42771 109.44319 29629 ft 416 kts 158°
2026-04-29 11:39 -1.45476 109.45319 30117 ft 414 kts 158°
2026-04-29 11:40 -1.48174 109.46317 30564 ft 412 kts 158°
2026-04-29 11:40 -1.50854 109.47308 31018 ft 409 kts 158°
2026-04-29 11:40 -1.53519 109.48293 31478 ft 407 kts 158°
2026-04-29 11:40 -1.56166 109.49273 31944 ft 404 kts 158°
2026-04-29 11:41 -1.58799 109.50247 32424 ft 401 kts 158°
2026-04-29 11:41 -1.61407 109.51211 32907 ft 398 kts 158°
2026-04-29 11:41 -1.63996 109.52168 33396 ft 395 kts 158°
2026-04-29 11:41 -1.66530 109.53106 33881 ft 391 kts 158°
2026-04-29 11:42 -1.69065 109.54043 34318 ft 387 kts 158°
2026-04-29 11:42 -1.71573 109.54971 34752 ft 382 kts 158°
2026-04-29 11:42 -1.76638 109.56847 34859 ft 395 kts 158°
2026-04-29 11:43 -1.81871 109.58786 34876 ft 409 kts 158°
2026-04-29 11:43 -1.87305 109.60797 34877 ft 422 kts 158°
2026-04-29 11:44 -1.91977 109.62526 34872 ft 432 kts 158°
2026-04-29 11:44 -1.98290 109.65682 34867 ft 443 kts 147°
2026-04-29 11:45 -2.02706 109.68376 34866 ft 451 kts 147°
2026-04-29 11:45 -2.08115 109.71682 34872 ft 459 kts 147°
2026-04-29 11:46 -2.13634 109.75001 34869 ft 467 kts 148°
2026-04-29 11:46 -2.19243 109.78343 34863 ft 470 kts 148°
2026-04-29 11:47 -2.24877 109.81693 34862 ft 472 kts 148°
2026-04-29 11:47 -2.30527 109.85053 34861 ft 472 kts 148°
2026-04-29 11:48 -2.36177 109.88414 34864 ft 471 kts 148°
2026-04-29 11:48 -2.41804 109.91764 34863 ft 470 kts 148°
2026-04-29 11:49 -2.47419 109.95107 34863 ft 469 kts 148°
2026-04-29 11:49 -2.52991 109.98425 34865 ft 469 kts 148°
2026-04-29 11:50 -2.58599 110.01764 34866 ft 469 kts 148°
2026-04-29 11:50 -2.64206 110.05103 34870 ft 469 kts 148°
2026-04-29 11:51 -2.69813 110.08442 34873 ft 469 kts 148°
2026-04-29 11:51 -2.75421 110.11783 34872 ft 469 kts 148°
2026-04-29 11:52 -2.81041 110.15130 34872 ft 469 kts 148°
2026-04-29 11:52 -2.86654 110.18475 34876 ft 469 kts 148°
2026-04-29 11:53 -2.92260 110.21815 34868 ft 469 kts 148°
2026-04-29 11:53 -2.97874 110.25160 34876 ft 469 kts 148°
2026-04-29 11:54 -3.03479 110.28501 34870 ft 469 kts 148°
2026-04-29 11:54 -3.09045 110.31819 34875 ft 468 kts 148°
2026-04-29 11:55 -3.14651 110.35160 34873 ft 468 kts 148°
2026-04-29 11:55 -3.20242 110.38493 34876 ft 468 kts 148°
2026-04-29 11:56 -3.25832 110.41827 34874 ft 468 kts 148°
2026-04-29 11:56 -3.31421 110.45160 34876 ft 468 kts 148°
2026-04-29 11:57 -3.37014 110.48496 34871 ft 468 kts 148°
2026-04-29 11:57 -3.42612 110.51835 34876 ft 468 kts 148°
2026-04-29 11:58 -3.48209 110.55175 34876 ft 468 kts 148°
2026-04-29 11:58 -3.53807 110.58514 34876 ft 468 kts 148°
2026-04-29 11:59 -3.59405 110.61855 34871 ft 468 kts 148°
2026-04-29 11:59 -3.65004 110.65197 34872 ft 468 kts 148°
2026-04-29 12:00 -3.70559 110.68513 34869 ft 468 kts 148°
2026-04-29 12:00 -3.76161 110.71858 34865 ft 468 kts 148°
2026-04-29 12:01 -3.81753 110.75197 34872 ft 468 kts 147°
2026-04-29 12:01 -3.87346 110.78537 34879 ft 468 kts 148°
2026-04-29 12:02 -3.92934 110.81875 34876 ft 467 kts 148°
2026-04-29 12:02 -3.98514 110.85208 34877 ft 467 kts 148°
2026-04-29 12:03 -4.03994 110.88481 34902 ft 441 kts 147°
2026-04-29 12:03 -4.06581 110.90024 34855 ft 427 kts 147°
2026-04-29 12:03 -4.09143 110.91555 34826 ft 432 kts 147°
2026-04-29 12:04 -4.14362 110.94679 34878 ft 442 kts 147°
2026-04-29 12:04 -4.19701 110.97873 34889 ft 452 kts 147°
2026-04-29 12:05 -4.25155 111.01134 34885 ft 461 kts 147°
2026-04-29 12:05 -4.30706 111.04453 34891 ft 467 kts 148°
2026-04-29 12:06 -4.36310 111.07804 34884 ft 470 kts 148°
2026-04-29 12:06 -4.41942 111.11173 34879 ft 472 kts 148°
2026-04-29 12:07 -4.47590 111.14552 34876 ft 473 kts 147°
2026-04-29 12:07 -4.53204 111.17913 34878 ft 473 kts 147°
2026-04-29 12:08 -4.58916 111.21260 34873 ft 473 kts 153°
2026-04-29 12:08 -4.65136 111.23314 34879 ft 477 kts 168°
2026-04-29 12:09 -4.71753 111.23973 34878 ft 478 kts 174°
2026-04-29 12:09 -4.78392 111.24402 34878 ft 478 kts 174°
2026-04-29 12:10 -4.85029 111.24860 34882 ft 478 kts 174°
2026-04-29 12:10 -4.91654 111.25367 34879 ft 477 kts 173°
2026-04-29 12:11 -4.98280 111.25894 34882 ft 477 kts 173°
2026-04-29 12:11 -5.04901 111.26423 34881 ft 477 kts 173°
2026-04-29 12:12 -5.11516 111.26949 34883 ft 477 kts 173°
2026-04-29 12:12 -5.18098 111.27472 34883 ft 476 kts 174°
2026-04-29 12:13 -5.24713 111.27997 34885 ft 476 kts 174°
2026-04-29 12:13 -5.31324 111.28522 34882 ft 477 kts 174°
2026-04-29 12:14 -5.37941 111.29047 34880 ft 477 kts 174°
2026-04-29 12:14 -5.44558 111.29573 34876 ft 477 kts 174°
2026-04-29 12:15 -5.51175 111.30098 34874 ft 477 kts 174°
2026-04-29 12:15 -5.57785 111.30624 34875 ft 477 kts 174°
2026-04-29 12:16 -5.64369 111.31147 34884 ft 477 kts 174°
2026-04-29 12:16 -5.70997 111.31674 34886 ft 477 kts 174°
2026-04-29 12:17 -5.77613 111.32200 34877 ft 477 kts 174°
2026-04-29 12:17 -5.84235 111.32726 34875 ft 477 kts 174°
2026-04-29 12:18 -5.90857 111.33253 34886 ft 477 kts 174°
2026-04-29 12:18 -5.97454 111.33919 34872 ft 476 kts 166°
2026-04-29 12:19 -6.03593 111.36283 34870 ft 473 kts 148°
2026-04-29 12:19 -6.09029 111.39903 34873 ft 472 kts 144°
2026-04-29 12:20 -6.14452 111.43644 34864 ft 472 kts 144°
2026-04-29 12:20 -6.19901 111.47358 34859 ft 473 kts 145°
2026-04-29 12:21 -6.25365 111.51043 34856 ft 473 kts 145°
2026-04-29 12:21 -6.30841 111.54723 34853 ft 473 kts 145°
2026-04-29 12:22 -6.36267 111.58371 34851 ft 473 kts 145°
2026-04-29 12:22 -6.41576 111.62263 34839 ft 472 kts 131°
2026-04-29 12:23 -6.43404 111.64967 34862 ft 469 kts 114°
2026-04-29 12:23 -6.44455 111.68059 34855 ft 469 kts 101°
2026-04-29 12:23 -6.44931 111.74443 34653 ft 441 kts 92°
2026-04-29 12:24 -6.45056 111.77498 33951 ft 436 kts 92°
2026-04-29 12:24 -6.45189 111.80532 33196 ft 432 kts 93°
2026-04-29 12:24 -6.45337 111.83528 32430 ft 428 kts 93°
2026-04-29 12:24 -6.45497 111.86504 31689 ft 424 kts 93°
2026-04-29 12:25 -6.45664 111.89449 30969 ft 420 kts 93°
2026-04-29 12:25 -6.45835 111.92373 30321 ft 415 kts 93°
2026-04-29 12:25 -6.46172 111.98105 28920 ft 405 kts 93°
2026-04-29 12:26 -6.46337 112.00918 28209 ft 400 kts 93°
2026-04-29 12:26 -6.46499 112.03697 27521 ft 395 kts 93°
2026-04-29 12:26 -6.46657 112.06405 26845 ft 391 kts 93°
2026-04-29 12:26 -6.46815 112.09116 26190 ft 387 kts 93°
2026-04-29 12:27 -6.47183 112.11773 25510 ft 383 kts 109°
2026-04-29 12:27 -6.48486 112.14079 24894 ft 379 kts 129°
2026-04-29 12:27 -6.50390 112.15874 24348 ft 375 kts 144°
2026-04-29 12:27 -6.52674 112.17122 23816 ft 370 kts 153°
2026-04-29 12:28 -6.55008 112.18185 23238 ft 366 kts 155°
2026-04-29 12:28 -6.56549 112.18862 22817 ft 364 kts 155°
2026-04-29 12:28 -6.58860 112.19870 22184 ft 360 kts 155°
2026-04-29 12:28 -6.61902 112.21207 21398 ft 354 kts 154°
2026-04-29 12:29 -6.63387 112.21866 21015 ft 351 kts 154°
2026-04-29 12:29 -6.65609 112.22859 20445 ft 347 kts 154°
2026-04-29 12:29 -6.67807 112.23847 19915 ft 343 kts 154°
2026-04-29 12:29 -6.70670 112.25139 19262 ft 337 kts 154°
2026-04-29 12:30 -6.72111 112.25791 18926 ft 334 kts 154°
2026-04-29 12:30 -6.74215 112.26744 18438 ft 330 kts 154°
2026-04-29 12:30 -6.76299 112.27689 17924 ft 327 kts 153°
2026-04-29 12:30 -6.78361 112.28623 17373 ft 323 kts 154°
2026-04-29 12:31 -6.80402 112.29549 16820 ft 320 kts 154°
2026-04-29 12:31 -6.82416 112.30463 16345 ft 315 kts 154°
2026-04-29 12:31 -6.84405 112.31365 15813 ft 312 kts 154°
2026-04-29 12:31 -6.86344 112.32245 15324 ft 309 kts 154°
2026-04-29 12:32 -6.88292 112.33129 14826 ft 306 kts 154°
2026-04-29 12:32 -6.90237 112.34011 14346 ft 303 kts 154°
2026-04-29 12:32 -6.92149 112.34879 13875 ft 300 kts 154°
2026-04-29 12:32 -6.94049 112.35742 13369 ft 298 kts 154°
2026-04-29 12:33 -6.95930 112.36596 12877 ft 295 kts 154°
2026-04-29 12:33 -6.97788 112.37439 12406 ft 291 kts 154°
2026-04-29 12:33 -6.99617 112.38269 11940 ft 288 kts 154°
2026-04-29 12:33 -7.01437 112.39096 11480 ft 285 kts 154°
2026-04-29 12:34 -7.03237 112.39913 11062 ft 282 kts 154°
2026-04-29 12:34 -7.05018 112.40722 10620 ft 280 kts 154°
2026-04-29 12:34 -7.06784 112.41524 10183 ft 277 kts 154°
2026-04-29 12:34 -7.08538 112.42321 9749 ft 275 kts 154°
2026-04-29 12:35 -7.10282 112.43113 9275 ft 274 kts 154°
2026-04-29 12:35 -7.12012 112.43898 8795 ft 273 kts 154°
2026-04-29 12:35 -7.13740 112.44684 8347 ft 278 kts 154°
2026-04-29 12:35 -7.15498 112.45483 7941 ft 275 kts 154°
2026-04-29 12:36 -7.17235 112.46272 7538 ft 271 kts 154°
2026-04-29 12:36 -7.18944 112.47048 7164 ft 267 kts 154°
2026-04-29 12:36 -7.20625 112.47812 6793 ft 263 kts 154°
2026-04-29 12:36 -7.22287 112.48567 6399 ft 260 kts 154°
2026-04-29 12:37 -7.23928 112.49313 5983 ft 257 kts 154°
2026-04-29 12:37 -7.25552 112.50052 5566 ft 255 kts 154°
2026-04-29 12:37 -7.27156 112.50781 5156 ft 252 kts 154°
2026-04-29 12:37 -7.28750 112.51506 4752 ft 250 kts 154°
2026-04-29 12:38 -7.30327 112.52223 4337 ft 247 kts 154°
2026-04-29 12:38 -7.31873 112.52925 3908 ft 239 kts 154°
2026-04-29 12:38 -7.33273 112.53747 3557 ft 227 kts 133°
2026-04-29 12:38 -7.34062 112.55017 3501 ft 207 kts 107°
2026-04-29 12:39 -7.34374 112.56408 3507 ft 204 kts 101°
2026-04-29 12:39 -7.34629 112.57802 3514 ft 206 kts 99°
2026-04-29 12:39 -7.34864 112.59214 3386 ft 201 kts 99°
2026-04-29 12:39 -7.35082 112.60571 3142 ft 191 kts 99°
2026-04-29 12:40 -7.35289 112.61865 2924 ft 182 kts 99°
2026-04-29 12:40 -7.35481 112.63070 2710 ft 165 kts 99°
2026-04-29 12:40 -7.35657 112.64169 2477 ft 153 kts 99°
2026-04-29 12:40 -7.35825 112.65216 2306 ft 149 kts 99°
2026-04-29 12:41 -7.35992 112.66260 2105 ft 151 kts 99°
2026-04-29 12:41 -7.36160 112.67304 1908 ft 151 kts 99°
2026-04-29 12:41 -7.36327 112.68346 1716 ft 151 kts 99°
2026-04-29 12:41 -7.36494 112.69390 1529 ft 153 kts 100°
2026-04-29 12:42 -7.36664 112.70446 1319 ft 152 kts 99°
2026-04-29 12:42 -7.36829 112.71479 1129 ft 152 kts 99°
2026-04-29 12:42 -7.37000 112.72543 946 ft 151 kts 99°
2026-04-29 12:42 -7.37165 112.73571 772 ft 152 kts 99°
2026-04-29 12:43 -7.37334 112.74632 564 ft 154 kts 100°
2026-04-29 12:43 -7.37494 112.75653 415 ft 140 kts 98°
2026-04-29 12:43 -7.37622 112.76595 212 ft 133 kts 103°
2026-04-29 12:43 -7.37782 112.77496 29 ft 127 kts 102°
2026-04-29 12:44 -7.37920 112.78296 8 ft 98 kts 99°
2026-04-29 12:44 -7.37998 112.78809 9 ft 32 kts 83°
2026-04-29 12:44 -7.37929 112.78861 8 ft 0 kts
2026-04-29 12:44 -7.37909 112.78864 8 ft 5 kts
2026-04-29 12:45 -7.37885 112.78868 10 ft 0 kts
2026-04-29 12:45 -7.37881 112.78869 9 ft 2 kts
2026-04-29 12:45 -7.37847 112.78874 8 ft 8 kts
2026-04-29 12:45 -7.37763 112.78888 8 ft 16 kts
2026-04-29 12:46 -7.37670 112.78903 8 ft 15 kts
2026-04-29 12:46 -7.37604 112.78938 8 ft 10 kts 71°
2026-04-29 12:46 -7.37606 112.79009 9 ft 11 kts 98°
2026-04-29 12:46 -7.37619 112.79085 8 ft 12 kts 99°
2026-04-29 12:47 -7.37631 112.79169 8 ft 13 kts 98°
2026-04-29 12:47 -7.37648 112.79269 8 ft 16 kts 99°
2026-04-29 12:47 -7.37667 112.79385 8 ft 14 kts 99°
2026-04-29 12:47 -7.37683 112.79485 8 ft 14 kts 99°
2026-04-29 12:48 -7.37699 112.79582 8 ft 14 kts 101°
2026-04-29 12:48 -7.37688 112.79633 9 ft 6 kts 22°
2026-04-29 12:48 -7.37686 112.79634 9 ft 0 kts 22°
2026-04-29 12:48 -7.37676 112.79636 8 ft 4 kts 12°
2026-04-29 12:49 -7.37647 112.79641 8 ft 3 kts
2026-04-29 12:49 -7.37635 112.79643 8 ft 2 kts
2026-04-29 12:49 -7.37627 112.79645 8 ft 1 kts
2026-04-29 12:49 -7.37623 112.79645 8 ft 1 kts
2026-04-29 12:50 -7.37620 112.79646 8 ft 0 kts